{"data":{"norad_id":68047,"intl_designator":"2026-041H","name":"STARLINK-36181","alt_names":[],"object_type":"PAYLOAD","status":"ACTIVE","operator":null,"country":"US","launch_date":"2026-03-02","launch_site_code":"AFETR","launch_vehicle":null,"mission":null,"orbit_class":"UNKNOWN","rcs_meters":null,"size_class":null,"mass_kg":null,"dimensions":null,"purposes":["comms"],"wikipedia_slug":null,"has_3d_model":false,"image_url":null,"decayed_at":null,"tle_current":{"epoch":"2026-09-19T21:38:59.690400Z","epoch_age_seconds":111283,"freshness":"FRESH","line1":"1 68047U 26041H   26262.90207975  .00026953  00000+0  80612-3 0  9999","line2":"2 68047  53.1575 224.1856 0001468  80.1780 279.9388 15.34394188 31178","mean_motion":15.34394188,"eccentricity":0.0001468,"inclination_deg":53.1575,"raan_deg":224.1856,"arg_perigee_deg":80.178,"mean_anomaly_deg":279.9388,"bstar":0.00080612,"rev_number":3117,"period_min":93.8481135592,"perigee_km":461.71627686729,"apogee_km":463.72475263362,"semimajor_km":6840.8575147505,"source":"CELESTRAK","updated_at":"2026-09-20T09:00:43.748300Z"}}}